THORAD AGENA D DEB

Satellite information

Favourite Embed

Satellite Type and Status

DEBRISIN ORBIT

Key statistics

Satellite THORAD AGENA D DEB at a glance.

Uptime

20292

Days in orbit

Revolutions

≈ 15.2

Per day

Orbit

SSO

Sun Synchronous Orbit

Inclination

100.0

Latest

Satellite identification and parameters

Extended collection of information and parameters for THORAD AGENA D DEB.

Object identification

Identified? True

Debris? True

Object name: THORAD AGENA D DEB

International designator: 1970-025PF

Object number (NORAD): 17717

Object ID (CCSDS): 17717

Country: UNITED STATES OF AMERICA (US)

Current information (Y/N): Y

RCS size: SMALL

Orbital parameters

Period: 94.457 minutes

Inclination: 99.9686 deg

SMA: 6870.396 km

Apoapsis: 511.658 km

Periapsis: 472.865 km

RAAN: 309.7159 deg

Eccentricy: 0.0028232

Argument of periapsis: 328.4033 deg

Mean anomaly: 31.55 deg

Mean motion: 15.2450936 rev/day

Mean motion (dot): 0.00069396 rev/day2

B* drag term: 0.0027705387 1/REarth

Two-line elements (TLE)

Creation date: Oct. 28, 2025, 2:18 a.m.

Reference frame: TEME

Reference center: EARTH

Epoch: Oct. 27, 2025, 11:47 p.m. UTC

TLE line 0: 0 THORAD AGENA D DEB

TLE line 1: 1 17717U 70025PF 25300.99146817 .00069396 00000-0 27705-2 0 9998

TLE line 2: 2 17717 99.9686 309.7159 0028232 328.4033 31.5500 15.24509360129995

Live tracking on map

Real-time ground track for satellite THORAD AGENA D DEB.

In-orbit conjunctions

A list of the most updated potential collisions computed for object THORAD AGENA D DEB.

Target Orbit TCA Probability of collision Miss distance Type
CZ-4 DEB SSO 2024-09-27 11:37:31 0.000124154 372.0 (m) DEBRIS
CZ-4 DEB SSO 2024-06-25 01:48:09 0.0005254622 48.0 (m) DEBRIS

Associated space launch

Meteorological research and development satellite

THORAD AGENA D DEB was lifted into orbit during the mission ‘Thorad SLV-2G Agena D | Nimbus 4’, on board a Thorad SLV-2G Agena D space rocket.

The launch took place on April 8, 1970, 8:17 a.m. from Space Launch Complex 2E.

For more information about the launch, click the button.

Launch to space Thorad SLV-2G Agena D | Nimbus 4
Thorad SLV-2G Agena D | Nimbus 4

Agency: N/A

Status: Launch Successful

Launch date: April 8, 1970, 8:17 a.m. UTC

Rocket: Thorad SLV-2G Agena D

Launch pad: Space Launch Complex 2E

Location: Vandenberg SFB, CA, USA

...

Latest news about this satellite

There are no fresh news available about this satellite. Check back as we update our databases every day.


Newsletter sign-up

Weekly statistics, charts and insights to help you stay on top of the space industry.